Regional Weather Roundup
Issued by NWS

Home | Current Version | Previous Version | Text Only | Print | Product List | Glossary Off
Versions: 1 2 3 4 5 6 7 8 9 10 11 12 13 14 15 16 17 18 19 20 21 22 23 24 25 26 27 28 29 30 31 32 33 34 35 36 37 38 39 40 41 42 43 44 45 46 47 48 49 50

000
ASUS45 KPSR 302010
RWRAZ

ARIZONA HOURLY REGIONAL WEATHER ROUNDUP
NATIONAL WEATHER SERVICE PHOENIX AZ
100 PM MST SAT MAY 30 2015

NOTE: FAIR INDICATES FEW OR NO CLOUDS BELOW 12,000 FEET WITH NO
SIGNIFICANT WEATHER AND/OR OBSTRUCTIONS TO VISIBILITY.

AZZ001>003-036-302100-
NORTHWEST ARIZONA

CITY           SKY/WX    TMP DP  RH WIND       PRES   REMARKS
KINGMAN        SUNNY     94  17   6 SW20G30   30.06F
$$

AZZ004>008-015-016-018-302100-
NORTH CENTRAL ARIZONA

CITY           SKY/WX    TMP DP  RH WIND       PRES   REMARKS
GRAND CANYON   MOSUNNY   78  26  14 CALM      30.28F
WILLIAMS       PTSUNNY   75  30  19 S10       30.35F
PRESCOTT       MOSUNNY   85  28  12 SW14      30.16F
FLAGSTAFF      PTSUNNY   73  32  22 SW7       30.31F
PAYSON         MOSUNNY   86  30  13 S12G17    30.19S
PAGE           SUNNY     85  39  19 MISG      30.12F
$$

AZZ009>014-017-302100-
NORTHEAST ARIZONA

CITY           SKY/WX    TMP DP  RH WIND       PRES   REMARKS
WINSLOW        SUNNY     88  30  12 NE10      30.16F
SAINT JOHNS    MOSUNNY   84  25  11 NW9       30.19F
WINDOW ROCK    PTSUNNY   76  27  16 E7        30.28F
SHOW LOW       MOSUNNY   79  25  13 W7        30.26F
$$

AZZ023-302100-
GREATER PHOENIX AREA

CITY           SKY/WX    TMP DP  RH WIND       PRES   REMARKS
PHOENIX        MOSUNNY  100  31   9 SW7       29.88F
BUCKEYE        SUNNY     99  30   9 S3        29.90F
GLENDALE       MOSUNNY  100  28   8 SW7       29.90F
LUKE AFB       MOSUNNY   99  30   9 S7        29.88F
DEER VALLEY    SUNNY     97  26   8 SW5       29.91F
SCOTTSDALE     SUNNY     97  27   8 S3        29.93F
MESA-FALCON    MOSUNNY   99  32   9 SW12      29.91F
MESA-GATEWAY   SUNNY     97  39  13 W6        29.93F
CHANDLER       MOSUNNY   99  34  10 SW7       29.91F
$$

AZZ027-028-302100-
SOUTHWEST MARICOPA COUNTY AND PINAL COUNTY

CITY           SKY/WX    TMP DP  RH WIND       PRES   REMARKS
CASA GRANDE    SUNNY     99  36  11 W9        29.90F
GILA BEND      FAIR      99  29   8 NW10      29.88F
$$

AZZ503-504-507>509-302100-
SOUTHEAST ARIZONA

CITY           SKY/WX    TMP DP  RH WIND       PRES   REMARKS
TUCSON         SUNNY     98  24   7 CALM      29.99F
DAVIS-MONTHAN  MOSUNNY   96  26   8 NW7       29.98F
RYAN FIELD       N/A     99  32   9 NW5       29.98F
NOGALES        SUNNY     94  29  10 VRB7G21   30.06F
SIERRA VISTA   MOSUNNY   88  24   9 SE8       30.13F
DOUGLAS        SUNNY     92  27   9 SW13      30.08F
SAFFORD        MOSUNNY   96  28   9 SW10      30.00F
$$

AZZ020-021-025-026-031-302100-
SOUTHWEST ARIZONA

CITY           SKY/WX    TMP DP  RH WIND       PRES   REMARKS
YUMA           SUNNY     98  33  10 W5        29.87F
$$

CAZ031-033-041-043-047-048-061-302100-
SOUTHERN CALIFORNIA

CITY           SKY/WX    TMP DP  RH WIND       PRES   REMARKS
DOWNTOWN L.A.  SUNNY     76  59  55 VRB3      29.94F
L.A. AIRPORT   MOSUNNY   65  58  78 W10       29.97F
SAN DIEGO      CLOUDY    65  57  75 SW7       29.99F
BURBANK        SUNNY     81  57  43 SE10      29.94F
ONTARIO        PTSUNNY   87  55  33 W9        29.94F
RIVERSIDE      SUNNY     86  55  34 VRB7      29.93F
PALM SPRINGS   MOSUNNY   96  33  11 SE7       29.90F
EL CENTRO NAS  MOSUNNY   96  37  12 VRB3      29.86F
IMPERIAL       SUNNY     95  46  18 MISG      29.85F
BLYTHE         SUNNY    100  24   6 S9        29.87F
NEEDLES        SUNNY    106  17   4 SW15G24   29.88F
$$

NVZ020-UTZ003-302100-
SOUTHERN NEVADA-UTAH

CITY           SKY/WX    TMP DP  RH WIND       PRES   REMARKS
LAS VEGAS      PTSUNNY   98  21   6 VRB3G20   29.91F
SALT LAKE CITY PTSUNNY   79  42  26 S13       30.07F
$$

NMZ009-TXZ055-302100-
NEW MEXICO-WEST TEXAS

CITY           SKY/WX    TMP DP  RH WIND       PRES   REMARKS
ALBUQUERQUE    MOSUNNY   76  42  29 SW5       30.24F
EL PASO        MOSUNNY   85  46  25 E14G23    30.12F
$$


........................KEY........................
SKY/WX - SKY CONDITION/WEATHER
TMP    - TEMPERATURE IN FAHRENHEIT
DP     - DEW POINT IN FAHRENHEIT
RH     - RELATIVE HUMIDITY IN PERCENT
WIND   - DIRECTION AND SPEED IN MILES PER HOUR (MPH)
VRB    - VARIABLE WIND DIRECTION
PRES   - MEAN SEA LEVEL PRESSURE IN INCHES OF MERCURY
         F - FALLING PRESSURE   R - RISING PRESSURE
         S - STEADY PRESSURE
VSB    - VISIBILITY IN MILES
HX     - HEAT INDEX IN FAHRENHEIT
WCI    - WIND CHILL INDEX IN FAHRENHEIT
TC     - TEMPERATURE IN CELSIUS WHICH IS ALSO KNOWN AS
         TEMPERATURE IN CENTIGRADE
AFB    - AIR FORCE BASE
         LUKE AFB IS LUKE AIR FORCE BASE
         DAVIS-MONTHAN IS DAVIS-MONTHAN AIR FORCE BASE
NAS    - NAVAL AIR STATION
         EL CENTRO NAS IS EL CENTRO NAVAL AIR STATION
N/A    - NOT AVAILABLE




USA.gov is the U.S. government's official web portal to all federal, state and local government web resources and services.